Location: Nebraska Star Party
(42.6000°N, 100.8833°W)
Time: 20:42:18
(UTC-05:00)

Amateur Radio Satellites - All Passes

Search period start: 31 July 2014 20:12
Search period end: 01 August 2014 20:12
Location: Nebraska Star Party, 42.6000°N, 100.8833°W

Satellite Date Start Highest point End Downlink Frequencies (MHz)
Time Altitude Azimuth
STRAND 1 31 Jul 20:47:16 20:52:24 83° 285° (WNW) 20:57:29 ?
MaSat-1 31 Jul 20:59:05 21:02:37 28° 105° (ESE) 21:06:36 437.345 MHz
SO-67 31 Jul 21:02:07 21:04:29 17° 267° (W) 21:06:53 435.3500 MHz FM
SO-50 31 Jul 21:14:43 21:19:25 57° 53° (NE) 21:24:09 436.795 FM
UOSAT-12 31 Jul 21:20:56 21:21:59 11° 30° (NNE) 21:23:01 437.025 FM, 437.400 FM
HO-68 31 Jul 21:38:44 21:45:52 73° 70° (ENE) 21:53:01 435.675 MHz FM
UKube-1 31 Jul 21:53:56 21:58:12 56° 73° (ENE) 22:02:30 145.840 MHz, 145.915 MHz
RS-15 31 Jul 21:56:32 22:07:14 52° 45° (NE) 22:18:13 29.354 - 29.394 USB, Beacon 29.352 USB
STRAND 1 31 Jul 22:29:06 22:30:45 12° 303° (WNW) 22:32:24 ?
Oscar 11 31 Jul 22:35:44 22:40:01 79° 75° (ENE) 22:44:21 145.825 FM, Beacon 2401.500 USB
MaSat-1 31 Jul 22:35:52 22:39:47 33° 307° (NW) 22:44:12 437.345 MHz
ISS 31 Jul 22:38:03 22:40:22 18° 133° (SE) 22:42:43 145.800 FM
SO-50 31 Jul 22:56:16 22:59:35 19° 249° (WSW) 23:02:55 436.795 FM
UOSAT-12 31 Jul 22:58:43 23:03:19 47° 51° (NE) 23:07:50 437.025 FM, 437.400 FM
FUNcube-1 31 Jul 23:05:56 23:10:09 61° 74° (ENE) 23:14:19 145.950 - 145.970 MHz USB
HO-68 31 Jul 23:28:57 23:34:11 22° 268° (W) 23:39:27 435.675 MHz FM
UKube-1 31 Jul 23:32:32 23:34:45 14° 269° (W) 23:37:00 145.840 MHz, 145.915 MHz
Sapphire 31 Jul 23:56:49 00:00:09 17° 104° (ESE) 00:03:29 437.095 MHz 1200 baud AX-25 AFSK
RS-15 01 Aug 00:09:08 00:19:39 52° 248° (WSW) 00:30:34 29.354 - 29.394 USB, Beacon 29.352 USB
ISS 01 Aug 00:13:29 00:16:48 60° 330° (NNW) 00:20:07 145.800 FM
Oscar 10/S400 01 Aug 00:26:16 00:52:20 61° 172° (S) 09:45:20 145.825 - 145.975 CW/USB, Beacon 145.810 USB
PCSat 01 Aug 00:28:04 00:32:53 34° 110° (ESE) 00:37:45 145.825 MHz
UOSAT-12 01 Aug 00:39:32 00:43:09 22° 248° (WSW) 00:46:44 437.025 FM, 437.400 FM
AO-40 01 Aug 00:45:23 06:48:33 39° 178° (S) 09:22:19 Beacon 2401.320
FUNcube-1 01 Aug 00:45:23 00:46:56 12° 270° (W) 00:48:28 145.950 - 145.970 MHz USB
Sapphire 01 Aug 01:37:34 01:42:57 70° 302° (WNW) 01:48:23 437.095 MHz 1200 baud AX-25 AFSK
ISS 01 Aug 01:51:27 01:54:01 20° 349° (N) 01:56:35 145.800 FM
Oscar 19 01 Aug 01:58:21 02:00:08 12° 88° (E) 02:01:54 437.125 CW, 437.150 USB
PCSat 01 Aug 02:11:15 02:16:15 37° 309° (NW) 02:21:17 145.825 MHz
Oscar 16 01 Aug 02:25:25 02:29:30 23° 94° (E) 02:33:34 437.025 USB, Beacon 2401.1428
ITAMSAT 1 01 Aug 02:53:34 02:57:06 18° 92° (E) 03:00:37 435.822 SSB
Uribyol 2 01 Aug 03:11:29 03:15:55 29° 95° (E) 03:20:20 436.500 FM
AO-27 01 Aug 03:13:00 03:17:27 28° 95° (E) 03:21:52 436.795 MHz FM
Sapphire 01 Aug 03:24:28 03:27:24 15° 323° (NW) 03:30:21 437.095 MHz 1200 baud AX-25 AFSK
JAS-1B 01 Aug 03:25:12 03:33:14 33° 90° (E) 03:40:09 435.800 - 435.900 CW/SSB
AO-Echo 01 Aug 03:25:41 03:30:22 38° 97° (E) 03:34:53 ?
ISS 01 Aug 03:29:07 03:31:37 19° 9° (N) 03:34:07 145.800 FM
TMSAT-1 01 Aug 03:29:29 03:31:27 12° 88° (E) 03:33:24 436.925 FM
Oscar 19 01 Aug 03:34:54 03:40:06 85° 285° (WNW) 03:45:18 437.125 CW, 437.150 USB
Gurwin Techsat 1B 01 Aug 03:53:57 03:58:33 29° 95° (E) 04:03:06 435.225 FM
OPAL 01 Aug 03:57:17 04:01:28 28° 64° (ENE) 04:05:41 ?
Oscar 16 01 Aug 04:04:08 04:09:02 45° 290° (WNW) 04:13:56 437.025 USB, Beacon 2401.1428
ITAMSAT 1 01 Aug 04:31:53 04:36:57 56° 289° (WNW) 04:41:59 435.822 SSB
AO-7 01 Aug 04:34:07 04:38:50 16° 88° (E) 04:43:31 29.400 - 29.500 MHz
Uribyol 2 01 Aug 04:50:45 04:55:26 36° 292° (WNW) 05:00:06 436.500 FM
AO-27 01 Aug 04:52:17 04:57:00 37° 292° (WNW) 05:01:42 436.795 MHz FM
AO-Echo 01 Aug 05:04:49 05:08:56 26° 295° (WNW) 05:12:56 ?
ISS 01 Aug 05:05:36 05:08:54 51° 29° (NNE) 05:12:11 145.800 FM
TMSAT-1 01 Aug 05:06:42 05:12:02 85° 285° (WNW) 05:17:19 436.925 FM
KITSAT 1 01 Aug 05:14:48 05:20:27 21° 103° (ESE) 05:26:07 435.175 FM
JAS-1B 01 Aug 05:15:09 05:24:15 60° 293° (WNW) 05:31:59 435.800 - 435.900 CW/SSB
Oscar 19 01 Aug 05:16:44 05:18:38 12° 303° (WNW) 05:20:33 437.125 CW, 437.150 USB
MaSat-1 01 Aug 05:16:58 05:19:52 15° 43° (NE) 05:22:44 437.345 MHz
Uosat F 01 Aug 05:25:37 05:30:07 32° 97° (E) 05:34:34 435.120 FM
Gurwin Techsat 1B 01 Aug 05:33:42 05:38:33 37° 292° (WNW) 05:43:23 435.225 FM
OPAL 01 Aug 05:35:44 05:40:14 35° 261° (W) 05:44:47 ?
AO-7 01 Aug 06:24:26 06:32:49 82° 107° (ESE) 06:41:07 29.400 - 29.500 MHz
STRAND 1 01 Aug 06:26:34 06:30:17 21° 62° (ENE) 06:34:00 ?
ISS 01 Aug 06:42:45 06:45:24 22° 226° (SW) 06:48:03 145.800 FM
TMSAT-1 01 Aug 06:49:02 06:51:07 12° 303° (WNW) 06:53:13 436.925 FM
JAS-2 01 Aug 06:49:16 06:52:48 17° 88° (E) 06:56:09 435.800 - 435.900 CW/SSB, 435.910 FM
MaSat-1 01 Aug 06:52:48 06:58:07 77° 63° (ENE) 07:03:05 437.345 MHz
Uosat F 01 Aug 07:04:28 07:08:50 31° 294° (WNW) 07:13:11 435.120 FM
KITSAT 1 01 Aug 07:06:45 07:14:52 84° 302° (WNW) 07:23:02 435.175 FM
JAS-1B 01 Aug 07:07:45 07:12:37 16° 315° (NW) 07:17:12 435.800 - 435.900 CW/SSB
Hamsat 01 Aug 07:10:57 07:14:50 32° 96° (E) 07:18:43 145.90 MHz
Saudisat 1A 01 Aug 07:41:11 07:45:31 58° 120° (ESE) 07:49:53 436.775 MHz
STRAND 1 01 Aug 08:04:03 08:09:04 54° 260° (W) 08:14:07 ?
AO-7 01 Aug 08:18:20 08:24:43 26° 307° (NW) 08:31:05 29.400 - 29.500 MHz
SO-67 01 Aug 08:24:20 08:27:25 29° 96° (E) 08:30:28 435.3500 MHz FM
MaSat-1 01 Aug 08:32:00 08:34:40 14° 261° (W) 08:37:15 437.345 MHz
JAS-2 01 Aug 08:32:49 08:38:36 63° 288° (WNW) 08:43:49 435.800 - 435.900 CW/SSB, 435.910 FM
Sapphire 01 Aug 08:42:20 08:46:18 20° 42° (NE) 08:50:16 437.095 MHz 1200 baud AX-25 AFSK
Hamsat 01 Aug 08:47:11 08:50:39 24° 292° (WNW) 08:54:08 145.90 MHz
KITSAT 1 01 Aug 09:05:01 09:11:30 26° 325° (NW) 09:18:00 435.175 FM
HO-68 01 Aug 09:09:23 09:11:25 11° 86° (E) 09:13:26 435.675 MHz FM
PCSat 01 Aug 09:14:52 09:19:49 34° 50° (NE) 09:24:44 145.825 MHz
Saudisat 1A 01 Aug 09:22:09 09:25:27 20° 319° (NW) 09:28:47 436.775 MHz
SO-67 01 Aug 09:57:59 10:00:16 17° 292° (WNW) 10:02:33 435.3500 MHz FM
Oscar 11 01 Aug 10:24:17 10:26:31 14° 91° (E) 10:28:45 145.825 FM, Beacon 2401.500 USB
Sapphire 01 Aug 10:24:54 10:30:21 77° 242° (WSW) 10:35:45 437.095 MHz 1200 baud AX-25 AFSK
HO-68 01 Aug 10:53:10 11:00:19 71° 104° (ESE) 11:07:25 435.675 MHz FM
FUNcube-1 01 Aug 10:56:54 10:57:50 11° 90° (E) 10:58:46 145.950 - 145.970 MHz USB
PCSat 01 Aug 10:58:17 11:03:16 38° 249° (WSW) 11:08:12 145.825 MHz
KITSAT 1 01 Aug 11:07:06 11:10:26 13° 355° (N) 11:13:46 435.175 FM
UKube-1 01 Aug 11:17:33 11:21:55 85° 285° (WNW) 11:26:16 145.840 MHz, 145.915 MHz
SO-50 01 Aug 11:32:44 11:35:06 14° 109° (ESE) 11:37:29 436.795 FM
Oscar 11 01 Aug 11:58:47 12:03:03 55° 287° (WNW) 12:07:17 145.825 FM, Beacon 2401.500 USB
RS-15 01 Aug 12:23:57 12:32:17 25° 102° (ESE) 12:40:27 29.354 - 29.394 USB, Beacon 29.352 USB
FUNcube-1 01 Aug 12:30:30 12:34:40 66° 285° (WNW) 12:38:52 145.950 - 145.970 MHz USB
HO-68 01 Aug 12:41:53 12:47:23 25° 303° (WNW) 12:52:53 435.675 MHz FM
KITSAT 1 01 Aug 13:04:29 13:09:52 19° 26° (NNE) 13:15:12 435.175 FM
SO-50 01 Aug 13:10:38 13:15:05 66° 306° (NW) 13:19:38 436.795 FM
UOSAT-12 01 Aug 13:14:04 13:15:20 11° 106° (ESE) 13:16:36 437.025 FM, 437.400 FM
Oscar 19 01 Aug 13:15:11 13:18:49 20° 62° (ENE) 13:22:27 437.125 CW, 437.150 USB
Oscar 16 01 Aug 13:43:00 13:47:38 36° 68° (ENE) 13:52:18 437.025 USB, Beacon 2401.1428
JAS-1B 01 Aug 14:08:30 14:16:35 35° 58° (ENE) 14:25:06 435.800 - 435.900 CW/SSB
ITAMSAT 1 01 Aug 14:11:59 14:16:30 31° 66° (ENE) 14:21:02 435.822 SSB
Saudisat 1A 01 Aug 14:29:54 14:31:07 11° 32° (NNE) 14:32:19 436.775 MHz
Uribyol 2 01 Aug 14:29:55 14:34:52 47° 70° (ENE) 14:39:49 436.500 FM
AO-27 01 Aug 14:31:40 14:36:39 47° 70° (ENE) 14:41:38 436.795 MHz FM
RS-15 01 Aug 14:32:06 14:43:16 85° 303° (WNW) 14:54:16 29.354 - 29.394 USB, Beacon 29.352 USB
AO-Echo 01 Aug 14:38:38 14:43:49 55° 72° (ENE) 14:48:59 ?
TMSAT-1 01 Aug 14:50:04 14:54:03 22° 63° (ENE) 14:58:02 436.925 FM
UOSAT-12 01 Aug 14:50:07 14:54:44 86° 304° (WNW) 14:59:27 437.025 FM, 437.400 FM
Oscar 19 01 Aug 14:52:44 14:57:44 55° 260° (W) 15:02:47 437.125 CW, 437.150 USB
SO-50 01 Aug 14:54:36 14:56:34 13° 327° (NNW) 14:58:33 436.795 FM
KITSAT 1 01 Aug 14:59:23 15:07:19 55° 51° (NE) 15:15:10 435.175 FM
Gurwin Techsat 1B 01 Aug 15:15:36 15:20:41 49° 70° (ENE) 15:25:48 435.225 FM
Oscar 16 01 Aug 15:22:40 15:27:02 28° 265° (W) 15:31:26 437.025 USB, Beacon 2401.1428
AO-7 01 Aug 15:33:29 15:40:11 28° 54° (NE) 15:46:53 29.400 - 29.500 MHz
ITAMSAT 1 01 Aug 15:51:11 15:55:54 34° 263° (W) 16:00:39 435.822 SSB
JAS-1B 01 Aug 15:57:12 16:06:16 70° 259° (WSW) 16:16:13 435.800 - 435.900 CW/SSB
Saudisat 1A 01 Aug 16:07:18 16:11:40 57° 53° (NE) 16:15:59 436.775 MHz
Uribyol 2 01 Aug 16:10:34 16:14:33 22° 267° (W) 16:18:34 436.500 FM
AO-27 01 Aug 16:12:21 16:16:23 22° 267° (W) 16:20:25 436.795 MHz FM
AO-Echo 01 Aug 16:19:04 16:22:53 20° 268° (W) 16:26:43 ?
TMSAT-1 01 Aug 16:28:27 16:33:36 52° 260° (W) 16:38:47 436.925 FM
UOSAT-12 01 Aug 16:32:45 16:35:36 16° 324° (NW) 16:38:29 437.025 FM, 437.400 FM
Uosat F 01 Aug 16:39:26 16:44:16 49° 70° (ENE) 16:49:08 435.120 FM
RS-15 01 Aug 16:47:52 16:57:22 32° 331° (NNW) 17:06:52 29.354 - 29.394 USB, Beacon 29.352 USB
KITSAT 1 01 Aug 16:55:13 17:02:25 37° 251° (WSW) 17:09:35 435.175 FM
Gurwin Techsat 1B 01 Aug 16:56:52 17:00:55 22° 267° (W) 17:04:59 435.225 FM
JAS-2 01 Aug 17:03:25 17:06:38 13° 54° (NE) 17:09:45 435.800 - 435.900 CW/SSB, 435.910 FM
AO-7 01 Aug 17:23:52 17:32:14 75° 254° (WSW) 17:40:38 29.400 - 29.500 MHz
OPAL 01 Aug 17:44:05 17:49:06 54° 103° (ESE) 17:54:08 ?
Saudisat 1A 01 Aug 17:48:06 17:50:48 16° 250° (WSW) 17:53:29 436.775 MHz
JAS-1B 01 Aug 17:53:32 17:58:31 15° 279° (W) 18:03:45 435.800 - 435.900 CW/SSB
Hamsat 01 Aug 18:05:27 18:08:52 25° 68° (ENE) 18:12:19 145.90 MHz
Uosat F 01 Aug 18:19:37 18:23:18 20° 267° (W) 18:27:01 435.120 FM
JAS-2 01 Aug 18:42:56 18:50:31 63° 71° (ENE) 18:57:30 435.800 - 435.900 CW/SSB, 435.910 FM
SO-67 01 Aug 18:59:53 19:01:20 12° 65° (ENE) 19:02:48 435.3500 MHz FM
RS-15 01 Aug 19:06:19 19:14:27 23° 6° (N) 19:22:40 29.354 - 29.394 USB, Beacon 29.352 USB
AO-7 01 Aug 19:22:20 19:26:20 14° 273° (W) 19:30:22 29.400 - 29.500 MHz
OPAL 01 Aug 19:23:53 19:27:36 21° 300° (WNW) 19:31:20 ?
HO-68 01 Aug 19:40:25 19:42:50 12° 47° (NE) 19:45:15 435.675 MHz FM
Hamsat 01 Aug 19:41:06 19:44:44 28° 265° (W) 19:48:24 145.90 MHz
SO-50 01 Aug 20:01:38 20:05:18 22° 42° (NE) 20:09:00 436.795 FM
